Frederick, MD

10:56 AM EST on December 13, 2019 (GMT -0500)
Frederick Municipal

Weather History for KFDK - August, 2019

Change the Weather History Date:

Thursday, August 22, 2019

  Actual Average (WUND) Record (WUND)
Temperature  
Mean Temperature 80 °F -  
Max Temperature 91 °F - - (-1)
Min Temperature 69 °F - - (-1)
Cooling Degree Days 15    
Growing Degree Days 30 (Base 50)    
Moisture  
Dew Point 70 °F    
Average Humidity 82    
Maximum Humidity 100    
Minimum Humidity 43    
Precipitation  
Precipitation 0.00 in - - ()
Sea Level Pressure  
Sea Level Pressure 29.96 in    
Wind  
Wind Speed 2 mph (SSW)    
Max Wind Speed 10 mph    
Max Gust Speed -    
Visibility 9 miles    
Events Rain , Thunderstorm    
Averages and records for this station are not official NWS values.
T = Trace of Precipitation, MM = Missing Value Source: NWS Daily Summary

Daily Weather History Graph

Daily Weather History Graph

Search for Another Location

Airport or City:

Astronomy

Aug. 22, 2019 Rise Set
Actual Time 6:28 AM EDT 7:55 PM EDT
Civil Twilight 6:00 AM EDT 8:23 PM EDT
Nautical Twilight 5:26 AM EDT 8:57 PM EDT
Astronomical Twilight 4:50 AM EDT 9:33 PM EDT
Moon 11:46 PM EDT (8/22) 12:59 PM EDT (8/22)
Length of Visible Light 14h 23m
Length of Day
13h 27m
Waning Gibbous, 60% of the Moon is Illuminated
Aug 22
Waning Gibbous
Aug 23
Last Quarter
Aug 30
New
Sep 5
First Quarter
Sep 14
Full

Hourly Weather History & Observations

Time (EDT) Temp. Heat Index Dew Point Humidity Pressure Visibility Wind Dir Wind Speed Gust Speed Precip Events Conditions
12:10 AM 75.2 °F - 71.6 °F 89% 29.95 in 10.0 mi Calm Calm - N/A   Clear
12:25 AM 77.0 °F - 71.6 °F 83% 29.95 in 10.0 mi Calm Calm - N/A   Clear
1:30 AM 75.2 °F - 71.6 °F 89% 29.96 in 10.0 mi South 4.6 mph - N/A   Clear
1:50 AM 75.2 °F - 71.6 °F 89% 29.96 in 10.0 mi SW 5.8 mph - N/A   Clear
2:10 AM 73.4 °F - 69.8 °F 88% 29.96 in 10.0 mi WSW 5.8 mph - N/A   Clear
2:30 AM 75.2 °F - 69.8 °F 83% 29.96 in 10.0 mi West 4.6 mph - N/A   Clear
2:50 AM 73.4 °F - 69.8 °F 88% 29.94 in 10.0 mi Calm Calm - N/A   Clear
3:10 AM 73.4 °F - 69.8 °F 88% 29.94 in 10.0 mi SSE 4.6 mph - N/A   Clear
3:30 AM 73.4 °F - 69.8 °F 88% 29.94 in 10.0 mi Calm Calm - N/A   Clear
3:50 AM 71.6 °F - 69.8 °F 94% 29.93 in 7.0 mi Calm Calm - N/A   Clear
4:10 AM 71.6 °F - 69.8 °F 94% 29.93 in 10.0 mi Calm Calm - N/A   Clear
4:30 AM 71.6 °F - 69.8 °F 94% 29.93 in 10.0 mi Calm Calm - N/A   Clear
4:50 AM 71.6 °F - 69.8 °F 94% 29.94 in 10.0 mi SSE 3.5 mph - N/A   Clear
5:10 AM 71.6 °F - 69.8 °F 94% 29.94 in 7.0 mi Calm Calm - N/A   Clear
5:30 AM 69.8 °F - 69.8 °F 100% 29.95 in 7.0 mi ESE 3.5 mph - N/A   Clear
5:50 AM 71.6 °F - 69.8 °F 94% 29.95 in 7.0 mi Calm Calm - N/A   Clear
6:10 AM 69.8 °F - 68.0 °F 94% 29.96 in 5.0 mi SE 4.6 mph - N/A   Clear
6:30 AM 71.6 °F - 69.8 °F 94% 29.97 in 10.0 mi Calm Calm - N/A   Clear
6:47 AM 71.6 °F - 69.8 °F 94% 29.98 in 10.0 mi Calm Calm - N/A   Clear
6:50 AM 69.8 °F - 69.8 °F 100% 29.97 in 7.0 mi Calm Calm - N/A   Clear
7:05 AM 71.6 °F - 69.8 °F 94% 29.98 in 10.0 mi Calm Calm - N/A   Clear
7:47 AM 73.4 °F - 71.6 °F 94% 29.98 in 10.0 mi Calm Calm - N/A   Clear
8:47 AM 80.6 °F 83.9 °F 69.8 °F 70% 29.99 in 10.0 mi Calm Calm - N/A   Clear
9:47 AM 84.2 °F 88.4 °F 69.8 °F 62% 29.99 in 10.0 mi West 9.2 mph - N/A   Clear
10:47 AM 84.2 °F 88.4 °F 69.8 °F 62% 30.00 in 10.0 mi West 6.9 mph - N/A   Clear
11:47 AM 87.8 °F 92.6 °F 69.8 °F 55% 30.00 in 10.0 mi WSW 6.9 mph - N/A   Clear
12:47 PM 89.6 °F 94.7 °F 69.8 °F 52% 29.98 in 10.0 mi West 10.4 mph - N/A   Mostly Cloudy
1:50 PM 87.8 °F 91.4 °F 68.0 °F 52% 29.97 in 10.0 mi SSW 5.8 mph - N/A   Scattered Clouds
2:47 PM 91.4 °F 94.0 °F 66.2 °F 43% 29.93 in 10.0 mi Calm Calm - N/A   Mostly Cloudy
3:50 PM 91.4 °F 95.4 °F 68.0 °F 46% 29.92 in 10.0 mi SSW 6.9 mph - N/A   Scattered Clouds
4:47 PM 91.4 °F 95.4 °F 68.0 °F 46% 29.90 in 10.0 mi SSW 8.1 mph - N/A   Scattered Clouds
5:47 PM 91.4 °F 95.4 °F 68.0 °F 46% 29.89 in 10.0 mi SSE 4.6 mph - N/A   Mostly Cloudy
6:50 PM 89.6 °F 96.2 °F 71.6 °F 55% 29.87 in 8.0 mi South 3.5 mph - N/A   Overcast
7:47 PM 77.0 °F - 71.6 °F 83% 29.95 in 8.0 mi North 4.6 mph - N/A   Overcast
8:47 PM 75.2 °F - 73.4 °F 94% 29.96 in 10.0 mi SSW 5.8 mph - N/A   Mostly Cloudy
9:30 PM 73.4 °F - 71.6 °F 94% 29.96 in 10.0 mi ESE 4.6 mph - N/A Thunderstorm Mostly Cloudy
9:50 PM 73.4 °F - 71.6 °F 94% 29.96 in 10.0 mi East 4.6 mph - N/A Thunderstorm Overcast
10:10 PM 73.4 °F - 71.6 °F 94% 29.97 in 10.0 mi Calm Calm - N/A   Mostly Cloudy
10:30 PM 73.4 °F - 71.6 °F 94% 29.97 in 10.0 mi Calm Calm - N/A   Mostly Cloudy
10:50 PM 73.4 °F - 71.6 °F 94% 29.98 in 7.0 mi NNW 4.6 mph - N/A Rain Rain
11:10 PM 73.4 °F - 71.6 °F 94% 29.98 in 10.0 mi Calm Calm - N/A   Overcast
11:30 PM 73.4 °F - 71.6 °F 94% 29.98 in 10.0 mi Calm Calm - N/A   Overcast
11:50 PM 73.4 °F - 71.6 °F 94% 29.99 in 10.0 mi Calm Calm - N/A   Mostly Cloudy